EW4438 Weather Reports


time (UTC)temp
F
wind
direction
speed
knots
gust
knots
rain 1hr
in
rain 24hr
in
rain mn
in
humidity
%
barometer
mb
20260503195236 83 324 3.5 4.3 0.00 0.00 0.00 35 1015.7
20260503194335 83 360 2.6 3.5 0.00 0.00 0.00 37 1015.7
20260503193335 82 360 0.9 3.5 0.00 0.00 0.00 38 1016.0
20260503191435 81 360 0.0 4.3 0.00 0.00 0.00 39 1016.3
20260503190436 82 292 0.0 0.0 0.00 0.00 0.00 42 1016.3
20260503185535 80 47 0.9 2.6 0.00 0.00 0.00 41 1016.7
20260503184539 78 337 1.7 4.3 0.00 0.00 0.00 42 1016.7
20260503183537 78 360 3.5 4.3 0.00 0.00 0.00 41 1017.0
20260503181635 76 352 1.7 5.2 0.00 0.00 0.00 44 1017.0
20260503180638 76 331 2.6 4.3 0.00 0.00 0.00 45 1017.1
20260503175637 75 337 0.0 0.0 0.00 0.00 0.00 44 1017.4
20260503173637 74 293 0.0 0.0 0.00 0.00 0.00 49 1017.7
20260503172637 74 288 3.5 5.2 0.00 0.00 0.00 50 1017.7
20260503171736 73 285 0.0 4.3 0.00 0.00 0.00 52 1017.7
20260503170834 69 360 0.0 2.6 0.00 0.00 0.00 55 1018.1
20260503150235 64 112 0.0 0.0 0.00 0.00 0.00 86 1019.4
20260503140135 56 202 0.0 0.0 0.00 0.00 0.00 100 1019.8
20260503131334 52 202 0.0 0.0 0.00 0.00 0.00 100 1019.4
20260503130335 52 202 0.0 0.0 0.00 0.00 0.00 100 1019.1
20260503130236 52 202 0.0 0.0 0.00 0.00 0.00 100 1019.1
20260503080735 58 202 0.0 0.0 0.00 0.01 0.00 94 1019.8
20260503072736 58 157 0.0 0.0 0.00 0.01 0.00 94 1019.8
20260503071736 58 157 0.0 0.0 0.00 0.01 0.00 93 1019.8
20260503070737 59 157 0.0 0.0 0.00 0.01 0.00 91 1019.8
20260503053925 62 45 0.0 0.0 0.00 0.01 0.01 84 1019.1
20260503052926 63 45 0.0 0.0 0.00 0.01 0.01 84 1019.1
20260503050925 62 112 0.0 0.0 0.00 0.01 0.01 82 1019.4
20260503045927 63 112 0.0 0.0 0.00 0.01 0.01 82 1019.8
20260503044925 63 112 0.0 0.0 0.00 0.01 0.01 80 1019.4
20260503043928 64 112 0.0 0.0 0.00 0.01 0.01 80 1019.8
20260503042025 64 45 0.0 0.0 0.00 0.01 0.01 78 1019.4
20260503041028 64 112 0.0 0.0 0.00 0.01 0.01 77 1019.4
20260503040032 64 112 0.0 0.0 0.00 0.01 0.01 76 1019.4
20260503035026 65 112 0.0 0.0 0.00 0.01 0.01 75 1019.1
20260503034028 65 112 0.0 0.0 0.00 0.01 0.01 74 1019.1
20260503033124 65 112 0.0 0.0 0.00 0.01 0.01 72 1019.1
20260503031225 66 112 0.0 0.0 0.00 0.01 0.01 70 1018.7
20260503030226 67 262 1.7 5.2 0.00 0.01 0.01 69 1018.7
20260503025225 67 242 3.5 7.8 0.00 0.01 0.01 67 1018.4
20260503024226 68 231 3.5 7.0 0.00 0.01 0.01 65 1018.4
20260503023227 68 263 0.9 3.5 0.00 0.01 0.01 63 1018.4
20260503021325 73 295 4.3 13.9 0.00 0.01 0.01 56 1017.7
20260503020326 74 180 0.0 0.0 0.00 0.01 0.01 56 1017.4
20260503020225 74 180 0.0 0.0 0.00 0.01 0.01 56 1017.4
20260503015226 74 180 0.0 0.0 0.00 0.01 0.01 55 1017.0
20260503014324 75 202 0.0 0.0 0.00 0.01 0.01 56 1017.0
20260503011425 75 219 0.0 4.3 0.00 0.01 0.01 53 1017.0
20260503004427 74 180 0.0 0.0 0.00 0.01 0.01 50 1017.0
20260503004326 74 197 0.0 0.0 0.00 0.01 0.01 50 1017.0
20260503003326 75 314 0.0 0.0 0.00 0.01 0.01 51 1017.0
20260503002325 74 288 2.6 4.3 0.00 0.01 0.01 50 1017.0
20260503000226 75 282 0.0 1.7 0.00 0.01 0.01 52 1017.4
20260502235227 75 194 0.9 5.2 0.00 0.01 0.01 53 1017.4
20260502234226 72 313 2.6 4.3 0.00 0.01 0.01 53 1017.7
20260502232324 73 291 3.5 6.1 0.00 0.01 0.01 53 1017.7
20260502230344 73 315 0.9 3.5 0.00 0.01 0.01 55 1018.1
20260502225328 72 236 1.7 7.8 0.00 0.01 0.01 55 1018.4
20260502224327 73 323 0.9 5.2 0.00 0.01 0.01 56 1018.4
20260502223325 70 337 3.5 4.3 0.00 0.01 0.01 55 1018.4
20260502223227 70 337 3.5 5.2 0.00 0.01 0.01 55 1018.4
20260502222226 69 360 1.7 3.5 0.00 0.01 0.01 51 1018.7
20260502221225 72 311 0.9 3.5 0.00 0.01 0.01 48 1019.1
20260502220325 68 360 2.6 4.3 0.00 0.01 0.01 48 1019.4
20260502214325 68 11 4.3 5.2 0.00 0.01 0.01 47 1019.8
20260502213326 73 160 0.9 3.5 0.00 0.01 0.01 50 1019.8
20260502212424 70 240 2.6 4.3 0.00 0.01 0.01 48 1020.1
20260502210426 67 337 2.6 3.5 0.00 0.01 0.01 52 1020.4
20260502205443 68 292 3.5 6.1 0.00 0.01 0.01 49 1020.8
20260502203525 71 236 2.6 4.3 0.00 0.01 0.01 56 1020.8
20260502202526 65 4 1.7 3.5 0.00 0.01 0.01 57 1021.1
20260502200542 66 112 2.6 4.3 0.00 0.01 0.01 57 1021.5